GFSFLT1_925_thetae_273.txt.gz
Theta_e
307 308 307 309 309 312 314 315 315 316 317 319 320 320 319 319 318 318 319 322 324 328 331 335 339 341 343 340 340 340 339 339 339
305 305 307 306 308 309 310 313 316 316 316 317 317 318 318 316 317 316 317 319 322 327 330 333 336 340 342 341 340 339 340 341 340
304 304 305 305 308 308 308 309 312 314 314 316 316 318 318 318 315 314 315 316 319 323 328 331 333 339 341 341 340 340 342 341 342
301 302 303 305 306 306 307 307 308 310 311 312 311 312 313 318 317 316 314 314 317 320 324 329 331 336 340 338 340 340 342 342 342
298 300 301 303 305 304 305 305 305 306 306 308 306 307 307 308 309 313 313 313 316 318 321 324 330 333 338 341 341 340 341 342 341
298 299 300 301 302 302 302 302 303 304 302 300 301 303 301 301 304 305 310 311 314 315 318 320 326 331 336 340 341 341 340 341 340
298 297 297 297 299 300 299 300 300 298 297 298 298 298 299 300 301 303 307 309 312 314 314 317 324 331 334 336 340 340 340 341 340
295 295 294 294 295 295 296 297 296 297 297 297 298 298 297 298 300 301 302 306 308 310 312 316 324 328 328 334 336 337 337 339 336
293 293 293 293 294 294 296 295 296 297 297 297 297 298 298 297 298 300 301 305 307 308 311 316 322 325 323 326 333 336 334 338 339
292 292 292 292 293 293 294 294 295 296 296 297 297 297 298 297 297 299 300 303 306 307 309 313 321 323 321 322 329 332 335 334 338
292 292 292 292 292 293 294 294 294 295 296 297 297 297 297 298 297 298 299 301 303 306 307 312 322 321 319 321 327 332 333 333 334
292 292 292 293 293 294 294 294 294 295 296 296 297 297 297 297 298 298 299 300 301 301 302 309 319 319 318 324 328 329 332 331 330
292 292 293 293 293 293 293 293 294 295 295 295 296 297 297 297 298 298 298 300 301 301 301 303 317 317 318 324 325 323 322 322 328
293 292 292 292 293 293 293 293 293 294 295 296 297 297 298 298 297 297 298 299 301 301 301 303 314 315 317 322 321 322 319 318 319
292 293 293 293 293 293 294 293 293 294 294 296 297 297 297 298 297 297 297 299 301 301 301 302 308 312 314 320 322 317 315 317 316
293 293 293 294 293 294 294 294 293 294 295 297 296 298 297 297 297 297 297 299 301 301 301 303 306 311 311 316 318 317 314 314 314
294 295 295 295 295 295 294 294 294 294 296 296 297 297 296 297 298 298 298 298 300 301 301 304 307 310 312 314 313 312 312 313 314
295 295 295 295 294 293 294 294 294 295 295 296 296 298 298 298 297 298 298 300 300 301 300 302 308 310 311 311 310 310 308 308 309
295 295 296 295 294 294 294 295 295 296 297 296 297 297 296 298 299 297 298 299 299 301 301 302 306 308 309 308 307 306 304 304 305
294 295 295 296 295 296 297 297 296 297 298 296 296 297 297 297 298 298 298 300 299 300 301 301 301 305 306 306 305 305 304 303 302

GFSFLT1_925_thetae_276.txt.gz
Theta_e
307 308 309 309 309 311 312 312 315 316 318 318 317 318 320 321 320 317 316 317 319 325 330 332 334 336 339 341 341 340 340 340 339
305 305 307 308 309 310 310 310 310 313 316 316 317 317 318 318 317 318 316 315 317 322 327 330 333 334 336 340 342 341 339 340 339
303 304 305 306 308 309 309 308 310 310 311 314 315 313 314 313 312 315 317 316 316 320 323 326 329 333 335 338 341 341 339 339 341
300 302 303 304 305 306 307 308 307 308 308 309 311 309 309 310 309 308 313 315 316 318 321 323 326 329 334 336 339 341 340 339 344
299 300 301 302 302 303 304 304 305 305 306 304 304 304 305 304 304 303 306 311 315 316 319 321 323 325 328 335 338 340 341 339 341
296 297 298 299 299 300 300 301 302 302 299 299 300 301 299 298 299 300 302 308 312 315 316 318 320 322 325 333 337 340 340 339 339
294 293 295 295 295 296 297 298 299 297 296 296 297 297 297 297 298 299 302 306 310 312 314 316 317 319 323 331 335 337 341 340 340
291 292 292 292 293 293 293 293 294 294 295 296 296 296 297 297 297 298 300 304 307 309 311 313 314 317 323 331 333 336 338 341 341
291 291 292 292 292 292 293 294 293 294 294 295 296 296 296 297 297 297 299 302 305 307 310 311 313 317 324 330 328 332 333 338 336
291 292 292 292 293 293 293 294 293 294 294 294 296 296 296 297 297 297 298 301 303 306 308 310 311 315 321 328 325 326 332 333 336
292 292 292 293 293 293 293 293 293 293 293 294 295 296 296 296 297 297 297 299 302 304 306 308 310 314 320 327 323 324 331 331 334
292 292 292 292 292 292 293 292 293 293 293 294 295 295 296 296 297 297 297 298 299 301 304 307 308 313 323 325 322 324 328 330 331
292 293 294 294 293 293 292 293 294 292 292 294 295 296 296 297 297 297 297 297 298 300 301 303 307 312 322 321 323 326 326 329 328
293 294 294 295 295 294 293 294 294 293 293 294 296 296 297 297 297 297 297 297 297 299 301 301 301 310 319 320 323 324 323 322 322
294 294 295 294 294 294 294 294 294 293 293 295 295 296 296 297 297 297 297 297 297 300 300 301 301 306 316 318 321 323 321 318 318
294 295 295 294 294 293 294 294 294 293 294 295 296 295 297 296 297 298 297 297 298 299 300 301 302 306 312 316 317 321 317 315 317
295 295 296 295 294 294 294 294 294 294 295 295 296 297 296 297 297 298 298 297 298 300 301 300 304 306 311 312 315 317 315 315 316
294 294 295 295 295 295 296 296 295 295 296 297 297 297 299 297 297 297 298 298 299 300 300 301 306 307 310 312 312 313 312 310 310
294 293 293 294 295 296 297 297 296 296 297 297 296 296 296 298 299 297 298 299 300 300 300 301 306 308 310 310 311 310 307 304 304
293 293 293 293 293 296 296 297 297 297 296 297 297 296 297 295 298 299 296 299 299 299 300 300 302 306 306 308 308 305 305 304 304

GFSFLT1_925_thetae_279.txt.gz
Theta_e
307 308 308 309 310 311 312 312 312 313 314 316 318 318 319 320 315 317 318 318 318 320 325 329 332 335 336 338 340 342 341 341 341
305 306 307 307 308 309 311 310 311 312 311 312 314 317 315 314 311 310 313 316 318 319 322 327 329 332 335 336 337 340 342 340 341
303 304 305 306 306 306 307 308 309 308 310 311 312 313 312 310 307 308 309 312 316 319 321 324 326 328 331 334 336 339 341 341 340
301 301 302 303 304 304 305 306 307 307 306 309 307 307 307 307 304 304 304 307 312 318 319 322 324 326 328 331 333 338 340 341 339
297 297 299 301 300 301 302 302 302 304 305 302 302 302 303 301 299 301 302 304 309 315 317 318 321 324 326 328 330 335 339 340 339
294 295 297 298 298 299 299 299 299 300 298 298 299 300 298 298 298 299 300 304 308 312 315 317 318 321 324 325 327 332 337 339 340
293 292 294 294 295 295 296 296 296 295 295 296 297 297 297 298 298 298 300 303 307 310 312 315 316 317 320 322 325 329 336 337 340
292 292 292 293 294 294 294 294 294 295 294 295 296 296 297 297 297 298 299 301 305 308 309 311 313 315 317 319 322 328 334 337 338
292 292 292 293 293 293 294 294 294 294 294 295 295 295 297 297 297 298 298 300 303 306 308 309 312 315 315 318 322 328 334 335 336
292 292 292 293 293 293 294 294 294 294 294 294 294 295 296 297 297 297 298 299 301 303 306 308 310 313 314 316 320 328 332 330 334
292 292 293 293 294 294 294 293 294 294 294 294 294 295 296 297 297 297 297 298 300 302 305 307 309 311 313 315 318 325 330 327 332
292 293 293 294 294 294 293 294 294 294 294 294 294 295 296 297 297 297 297 298 298 299 301 305 307 308 311 313 318 325 326 326 331
294 294 294 294 294 294 294 294 295 295 295 294 295 296 296 297 297 298 298 298 298 298 299 302 305 307 309 312 322 326 325 327 327
294 294 294 294 294 294 294 294 294 295 295 295 296 296 296 297 297 298 298 298 298 298 299 301 303 305 307 311 323 323 326 327 328
294 294 295 295 295 294 295 294 295 295 295 296 296 297 297 297 298 298 298 298 298 298 298 299 301 301 301 313 321 323 324 324 324
294 294 295 296 295 295 295 295 295 295 296 295 296 296 297 297 298 298 298 299 298 298 298 299 301 301 301 313 318 322 321 320 320
294 293 294 295 295 295 296 296 296 295 296 296 296 298 297 298 297 298 298 299 299 298 299 300 300 302 304 312 316 318 318 317 319
293 293 293 294 293 296 296 297 297 296 296 297 297 298 299 296 298 298 298 299 299 299 299 300 302 305 307 313 315 316 314 312 313
292 293 292 292 293 294 295 296 296 297 297 297 297 296 296 298 299 297 296 297 299 299 299 301 304 306 309 312 313 313 313 313 309
292 292 292 292 292 292 294 294 295 295 296 297 297 297 296 296 297 298 297 296 299 299 300 301 303 305 307 308 309 307 304 305 306

GFSFLT1_925_thetae_282.txt.gz
Theta_e
308 308 309 309 310 311 311 311 312 313 313 314 315 317 318 317 314 315 315 315 320 322 323 324 328 332 335 337 338 340 341 342 342
305 307 307 308 308 308 308 309 311 312 312 312 312 315 314 314 313 312 312 312 314 318 322 324 326 329 331 334 336 338 339 341 342
302 303 304 305 306 306 306 307 308 308 308 309 312 309 309 309 309 309 308 310 311 315 319 322 325 327 329 331 333 335 338 340 342
300 300 301 303 303 303 304 304 305 305 306 308 306 304 305 305 305 305 304 306 308 312 316 320 322 325 327 329 331 333 335 338 339
298 297 299 301 301 301 301 302 301 302 303 301 301 302 303 302 302 302 302 304 306 310 313 316 320 321 324 327 329 331 332 334 339
296 296 298 299 299 299 299 300 300 299 298 298 299 300 300 300 300 301 302 303 305 308 312 314 317 319 322 324 326 328 329 331 336
295 296 296 297 297 297 298 298 298 298 298 298 298 299 299 299 300 300 301 302 304 306 309 312 315 315 318 320 322 325 326 329 333
296 295 296 296 296 297 297 298 298 298 298 297 298 298 298 298 299 300 300 302 303 305 307 309 312 313 314 316 319 321 324 327 331
295 295 296 296 297 297 297 297 297 297 297 297 297 297 297 298 299 299 299 300 302 304 306 308 311 312 312 316 318 319 321 326 330
295 295 296 297 297 297 297 297 297 297 297 297 297 297 297 298 298 299 299 300 301 302 304 306 308 311 312 314 318 317 320 325 331
295 296 297 297 297 296 296 296 296 296 296 296 297 297 297 298 298 299 299 299 300 301 303 304 307 310 312 314 315 317 319 322 329
295 296 296 296 296 295 296 296 296 296 296 297 297 298 298 298 298 299 299 299 300 300 301 302 304 308 311 311 312 316 317 321 328
296 296 296 295 295 295 295 296 296 296 296 298 298 298 298 299 298 299 299 299 299 300 301 301 303 305 308 310 311 313 315 320 327
296 296 297 296 296 296 296 297 296 296 297 297 298 298 299 299 299 299 299 299 299 300 301 301 302 304 307 309 310 312 317 324 328
296 296 296 296 297 297 297 298 297 297 297 297 297 297 299 299 299 299 299 299 299 300 301 301 301 302 305 306 308 311 323 325 327
295 295 296 296 296 297 297 297 298 297 297 298 297 297 299 299 298 298 299 298 299 301 301 301 301 303 304 305 307 313 322 325 326
294 295 295 295 295 297 297 297 298 298 297 297 298 298 298 298 298 299 299 297 299 301 301 301 302 303 304 305 307 316 321 323 322
294 294 294 294 295 295 296 297 297 298 298 299 299 299 298 297 298 298 298 297 298 301 301 302 303 303 305 306 314 317 319 319 321
294 294 294 294 294 294 295 296 296 296 296 296 298 298 298 299 298 298 298 296 298 301 302 304 305 306 307 311 314 316 314 310 310
295 295 294 294 294 294 294 295 295 296 295 295 296 295 297 297 297 298 299 297 297 300 303 304 306 308 309 312 313 313 311 310 310